| time (UTC) | temp C | wind direction | speed KPH | gust KPH | rain 1hr cm | rain 24hr cm | rain mn cm | humidity % | barometer mb |
| 20260505052012 | 14 | 246 | 4.8 | 6.4 | 0.00 | 0.00 | 0.00 | 45 | 1016.2 |
| 20260505051528 | 14 | 259 | 3.2 | 8.0 | 0.00 | 0.00 | 0.00 | 45 | 1016.3 |
| 20260505051010 | 15 | 248 | 4.8 | 8.0 | 0.00 | 0.00 | 0.00 | 45 | 1016.3 |
| 20260505050510 | 15 | 215 | 3.2 | 6.4 | 0.00 | 0.00 | 0.00 | 45 | 1016.1 |
| 20260505041545 | 15 | 321 | 0.0 | 4.8 | 0.00 | 0.00 | 0.00 | 42 | 1015.9 |
| 20260505041012 | 15 | 321 | 1.6 | 4.8 | 0.00 | 0.00 | 0.00 | 42 | 1015.9 |
| 20260505040513 | 15 | 5 | 0.0 | 3.2 | 0.00 | 0.00 | 0.00 | 41 | 1015.9 |
| 20260505040033 | 15 | 5 | 0.0 | 3.2 | 0.00 | 0.00 | 0.00 | 42 | 1015.8 |
| 20260505035509 | 15 | 5 | 0.0 | 3.2 | 0.00 | 0.00 | 0.00 | 42 | 1015.8 |
| 20260505035011 | 15 | 5 | 1.6 | 3.2 | 0.00 | 0.00 | 0.00 | 42 | 1015.8 |
| 20260505034529 | 15 | 20 | 0.0 | 3.2 | 0.00 | 0.00 | 0.00 | 42 | 1015.8 |
| 20260505034013 | 15 | 20 | 0.0 | 3.2 | 0.00 | 0.00 | 0.00 | 42 | 1015.7 |
| 20260505033513 | 16 | 28 | 1.6 | 3.2 | 0.00 | 0.00 | 0.00 | 41 | 1015.6 |
| 20260505033033 | 16 | 28 | 0.0 | 3.2 | 0.00 | 0.00 | 0.00 | 40 | 1015.5 |
| 20260505032511 | 16 | 28 | 0.0 | 1.6 | 0.00 | 0.00 | 0.00 | 40 | 1015.5 |
| 20260505032014 | 16 | 28 | 0.0 | 1.6 | 0.00 | 0.00 | 0.00 | 41 | 1015.5 |
| 20260505031530 | 16 | 28 | 0.0 | 1.6 | 0.00 | 0.00 | 0.00 | 41 | 1015.6 |
| 20260505031010 | 15 | 28 | 0.0 | 1.6 | 0.00 | 0.00 | 0.00 | 41 | 1015.6 |
| 20260505030512 | 15 | 28 | 0.0 | 1.6 | 0.00 | 0.00 | 0.00 | 41 | 1015.4 |
| 20260505030028 | 15 | 28 | 0.0 | 1.6 | 0.00 | 0.00 | 0.00 | 41 | 1015.3 |
| 20260505025515 | 15 | 28 | 0.0 | 1.6 | 0.00 | 0.00 | 0.00 | 41 | 1015.2 |
| 20260505025012 | 15 | 28 | 0.0 | 1.6 | 0.00 | 0.00 | 0.00 | 42 | 1015.1 |
| 20260505024527 | 15 | 28 | 0.0 | 1.6 | 0.00 | 0.00 | 0.00 | 42 | 1015.1 |
| 20260505024015 | 16 | 28 | 0.0 | 1.6 | 0.00 | 0.00 | 0.00 | 43 | 1015.1 |
| 20260505023512 | 16 | 32 | 0.0 | 1.6 | 0.00 | 0.00 | 0.00 | 42 | 1015.0 |
| 20260505023032 | 16 | 32 | 0.0 | 1.6 | 0.00 | 0.00 | 0.00 | 42 | 1015.1 |
| 20260505022510 | 16 | 32 | 0.0 | 1.6 | 0.00 | 0.00 | 0.00 | 41 | 1015.2 |
| 20260505022012 | 16 | 32 | 0.0 | 4.8 | 0.00 | 0.00 | 0.00 | 40 | 1015.1 |
| 20260505021530 | 16 | 38 | 0.0 | 4.8 | 0.00 | 0.00 | 0.00 | 41 | 1015.1 |
| 20260505021010 | 16 | 27 | 0.0 | 4.8 | 0.00 | 0.00 | 0.00 | 40 | 1015.2 |
| 20260505020510 | 17 | 38 | 1.6 | 4.8 | 0.00 | 0.00 | 0.00 | 39 | 1015.1 |
| 20260505020039 | 17 | 10 | 0.0 | 3.2 | 0.00 | 0.00 | 0.00 | 38 | 1015.1 |
| 20260505015514 | 18 | 48 | 0.0 | 3.2 | 0.00 | 0.00 | 0.00 | 38 | 1015.1 |
| 20260505015014 | 18 | 33 | 0.0 | 3.2 | 0.00 | 0.00 | 0.00 | 37 | 1015.3 |
| 20260505014538 | 18 | 29 | 0.0 | 3.2 | 0.00 | 0.00 | 0.00 | 36 | 1015.3 |
| 20260505014012 | 18 | 40 | 0.0 | 4.8 | 0.00 | 0.00 | 0.00 | 35 | 1015.4 |
| 20260505013513 | 18 | 29 | 1.6 | 4.8 | 0.00 | 0.00 | 0.00 | 33 | 1015.1 |
| 20260505013039 | 18 | 109 | 1.6 | 6.4 | 0.00 | 0.00 | 0.00 | 33 | 1015.0 |
| 20260505012514 | 18 | 40 | 1.6 | 6.4 | 0.00 | 0.00 | 0.00 | 31 | 1015.0 |
| 20260505012011 | 18 | 79 | 1.6 | 6.4 | 0.00 | 0.00 | 0.00 | 31 | 1015.0 |
| 20260505011535 | 18 | 5 | 1.6 | 8.0 | 0.00 | 0.00 | 0.00 | 34 | 1015.0 |
| 20260505011009 | 19 | 21 | 1.6 | 6.4 | 0.00 | 0.00 | 0.00 | 34 | 1015.1 |
| 20260505010509 | 19 | 325 | 1.6 | 6.4 | 0.00 | 0.00 | 0.00 | 34 | 1015.2 |
| 20260505010030 | 19 | 360 | 3.2 | 9.7 | 0.00 | 0.00 | 0.00 | 33 | 1015.3 |
| 20260505005511 | 19 | 214 | 1.6 | 9.7 | 0.00 | 0.00 | 0.00 | 31 | 1015.1 |
| 20260505005012 | 19 | 82 | 3.2 | 6.4 | 0.00 | 0.00 | 0.00 | 29 | 1015.2 |
| 20260505004540 | 20 | 109 | 0.0 | 6.4 | 0.00 | 0.00 | 0.00 | 29 | 1015.0 |
| 20260505004009 | 20 | 65 | 0.0 | 9.7 | 0.00 | 0.00 | 0.00 | 29 | 1015.0 |
| 20260505003511 | 19 | 337 | 1.6 | 9.7 | 0.00 | 0.00 | 0.00 | 28 | 1015.0 |
| 20260505003052 | 20 | 61 | 1.6 | 9.7 | 0.00 | 0.00 | 0.00 | 29 | 1015.0 |
| 20260505002513 | 20 | 352 | 1.6 | 9.7 | 0.00 | 0.00 | 0.00 | 28 | 1015.1 |
| 20260505002012 | 20 | 238 | 3.2 | 11.3 | 0.00 | 0.00 | 0.00 | 27 | 1015.1 |
| 20260505001530 | 20 | 325 | 1.6 | 9.7 | 0.00 | 0.00 | 0.00 | 28 | 1015.1 |
| 20260505001010 | 20 | 34 | 3.2 | 9.7 | 0.00 | 0.00 | 0.00 | 27 | 1015.0 |
| 20260505000514 | 21 | 164 | 1.6 | 9.7 | 0.00 | 0.00 | 0.00 | 27 | 1015.1 |
| 20260505000034 | 21 | 348 | 1.6 | 6.4 | 0.00 | 0.00 | 0.00 | 27 | 1015.1 |
| 20260504235513 | 21 | 156 | 1.6 | 9.7 | 0.00 | 0.00 | 0.00 | 27 | 1015.1 |
| 20260504235012 | 21 | 360 | 1.6 | 9.7 | 0.00 | 0.00 | 0.00 | 27 | 1015.1 |
| 20260504234533 | 21 | 32 | 1.6 | 8.0 | 0.00 | 0.00 | 0.00 | 28 | 1015.2 |
| 20260504234016 | 21 | 5 | 3.2 | 6.4 | 0.00 | 0.00 | 0.00 | 28 | 1015.3 |
| 20260504233510 | 21 | 348 | 0.0 | 8.0 | 0.00 | 0.00 | 0.00 | 27 | 1015.2 |
| 20260504233035 | 21 | 60 | 3.2 | 9.7 | 0.00 | 0.00 | 0.00 | 26 | 1015.3 |
| 20260504232515 | 21 | 352 | 4.8 | 9.7 | 0.00 | 0.00 | 0.00 | 24 | 1015.4 |
| 20260504232010 | 21 | 360 | 3.2 | 8.0 | 0.00 | 0.00 | 0.00 | 25 | 1015.4 |
| 20260504231530 | 21 | 46 | 3.2 | 11.3 | 0.00 | 0.00 | 0.00 | 28 | 1015.5 |
| 20260504231014 | 21 | 69 | 0.0 | 14.5 | 0.00 | 0.00 | 0.00 | 32 | 1015.4 |
| 20260504230514 | 21 | 194 | 3.2 | 9.7 | 0.00 | 0.00 | 0.00 | 26 | 1015.5 |
| 20260504230027 | 21 | 31 | 3.2 | 8.0 | 0.00 | 0.00 | 0.00 | 33 | 1015.5 |
| 20260504225512 | 21 | 47 | 1.6 | 9.7 | 0.00 | 0.00 | 0.00 | 32 | 1015.6 |
| 20260504225011 | 21 | 34 | 1.6 | 9.7 | 0.00 | 0.00 | 0.00 | 31 | 1015.5 |
| 20260504224534 | 21 | 17 | 1.6 | 12.9 | 0.00 | 0.00 | 0.00 | 32 | 1015.6 |
| 20260504224010 | 21 | 34 | 3.2 | 12.9 | 0.00 | 0.00 | 0.00 | 28 | 1015.6 |
| 20260504223511 | 21 | 104 | 3.2 | 17.7 | 0.00 | 0.00 | 0.00 | 30 | 1015.7 |
| 20260504223046 | 21 | 50 | 4.8 | 17.7 | 0.00 | 0.00 | 0.00 | 29 | 1015.7 |
| 20260504222517 | 21 | 36 | 3.2 | 17.7 | 0.00 | 0.00 | 0.00 | 30 | 1015.8 |
| 20260504222012 | 21 | 84 | 6.4 | 17.7 | 0.00 | 0.00 | 0.00 | 27 | 1015.6 |
| 20260504221530 | 21 | 272 | 3.2 | 16.1 | 0.00 | 0.00 | 0.00 | 31 | 1015.6 |
| 20260504221011 | 21 | 141 | 4.8 | 14.5 | 0.00 | 0.00 | 0.00 | 30 | 1015.7 |
| 20260504220511 | 21 | 72 | 6.4 | 14.5 | 0.00 | 0.00 | 0.00 | 25 | 1015.8 |
| 20260504220036 | 21 | 233 | 3.2 | 9.7 | 0.00 | 0.00 | 0.00 | 29 | 1015.9 |
| 20260504215514 | 21 | 80 | 1.6 | 17.7 | 0.00 | 0.00 | 0.00 | 31 | 1016.0 |
| 20260504215016 | 20 | 177 | 6.4 | 17.7 | 0.00 | 0.00 | 0.00 | 30 | 1015.8 |
| 20260504214534 | 20 | 68 | 1.6 | 9.7 | 0.00 | 0.00 | 0.00 | 29 | 1015.8 |
| 20260504214018 | 21 | 127 | 3.2 | 9.7 | 0.00 | 0.00 | 0.00 | 29 | 1016.0 |
| 20260504213511 | 21 | 74 | 4.8 | 8.0 | 0.00 | 0.00 | 0.00 | 30 | 1016.0 |
| 20260504213036 | 21 | 9 | 3.2 | 8.0 | 0.00 | 0.00 | 0.00 | 30 | 1015.9 |
| 20260504212513 | 21 | 94 | 3.2 | 9.7 | 0.00 | 0.00 | 0.00 | 29 | 1016.0 |
| 20260504212012 | 21 | 106 | 4.8 | 9.7 | 0.00 | 0.00 | 0.00 | 29 | 1015.9 |
| 20260504211536 | 20 | 59 | 3.2 | 12.9 | 0.00 | 0.00 | 0.00 | 28 | 1015.9 |
| 20260504211011 | 20 | 229 | 1.6 | 12.9 | 0.00 | 0.00 | 0.00 | 26 | 1015.9 |
| 20260504210511 | 20 | 123 | 3.2 | 9.7 | 0.00 | 0.00 | 0.00 | 29 | 1016.0 |
| 20260504210043 | 21 | 142 | 1.6 | 9.7 | 0.00 | 0.00 | 0.00 | 29 | 1016.0 |
| 20260504205512 | 20 | 70 | 4.8 | 9.7 | 0.00 | 0.00 | 0.00 | 29 | 1016.0 |
| 20260504205010 | 20 | 115 | 3.2 | 11.3 | 0.00 | 0.00 | 0.00 | 30 | 1016.0 |
| 20260504204535 | 20 | 133 | 3.2 | 11.3 | 0.00 | 0.00 | 0.00 | 28 | 1016.1 |
| 20260504204011 | 20 | 136 | 3.2 | 8.0 | 0.00 | 0.00 | 0.00 | 29 | 1016.0 |
| 20260504203514 | 20 | 164 | 3.2 | 12.9 | 0.00 | 0.00 | 0.00 | 29 | 1016.0 |
| 20260504203033 | 20 | 140 | 4.8 | 12.9 | 0.00 | 0.00 | 0.00 | 30 | 1016.1 |
| 20260504202512 | 20 | 134 | 3.2 | 9.7 | 0.00 | 0.00 | 0.00 | 33 | 1016.0 |
| 20260504202011 | 20 | 96 | 3.2 | 11.3 | 0.00 | 0.00 | 0.00 | 30 | 1016.1 |
| 20260504201534 | 20 | 100 | 3.2 | 12.9 | 0.00 | 0.00 | 0.00 | 33 | 1016.2 |
| 20260504201013 | 20 | 103 | 3.2 | 12.9 | 0.00 | 0.00 | 0.00 | 31 | 1016.3 |
| 20260504200511 | 21 | 88 | 4.8 | 12.9 | 0.00 | 0.00 | 0.00 | 34 | 1016.2 |
| 20260504200032 | 20 | 117 | 3.2 | 14.5 | 0.00 | 0.00 | 0.00 | 33 | 1016.2 |
| 20260504195513 | 20 | 140 | 8.0 | 14.5 | 0.00 | 0.00 | 0.00 | 28 | 1016.3 |
| 20260504195012 | 20 | 146 | 3.2 | 8.0 | 0.00 | 0.00 | 0.00 | 34 | 1016.3 |
| 20260504194532 | 20 | 61 | 3.2 | 11.3 | 0.00 | 0.00 | 0.00 | 34 | 1016.3 |
| 20260504194014 | 20 | 89 | 3.2 | 11.3 | 0.00 | 0.00 | 0.00 | 35 | 1016.3 |
| 20260504193513 | 20 | 107 | 1.6 | 9.7 | 0.00 | 0.00 | 0.00 | 33 | 1016.3 |
| 20260504193035 | 20 | 103 | 4.8 | 14.5 | 0.00 | 0.00 | 0.00 | 33 | 1016.3 |
| 20260504192513 | 20 | 309 | 0.0 | 14.5 | 0.00 | 0.00 | 0.00 | 30 | 1016.3 |
| 20260504192010 | 20 | 110 | 3.2 | 11.3 | 0.00 | 0.00 | 0.00 | 32 | 1016.4 |
| 20260504191537 | 19 | 147 | 4.8 | 11.3 | 0.00 | 0.00 | 0.00 | 27 | 1016.4 |
| 20260504191011 | 19 | 63 | 3.2 | 9.7 | 0.00 | 0.00 | 0.00 | 27 | 1016.6 |
| 20260504190513 | 20 | 12 | 3.2 | 12.9 | 0.00 | 0.00 | 0.00 | 32 | 1016.6 |
| 20260504190038 | 20 | 78 | 3.2 | 14.5 | 0.00 | 0.00 | 0.00 | 35 | 1016.5 |
| 20260504185512 | 20 | 75 | 3.2 | 17.7 | 0.00 | 0.00 | 0.00 | 28 | 1016.5 |
| 20260504185011 | 20 | 263 | 6.4 | 17.7 | 0.00 | 0.00 | 0.00 | 27 | 1016.5 |
| 20260504184547 | 20 | 22 | 3.2 | 12.9 | 0.00 | 0.00 | 0.00 | 28 | 1016.5 |
| 20260504184012 | 20 | 297 | 4.8 | 12.9 | 0.00 | 0.00 | 0.00 | 28 | 1016.5 |
| 20260504183512 | 20 | 346 | 3.2 | 12.9 | 0.00 | 0.00 | 0.00 | 26 | 1016.5 |
| 20260504183036 | 20 | 212 | 1.6 | 9.7 | 0.00 | 0.00 | 0.00 | 25 | 1016.5 |
| 20260504182513 | 20 | 32 | 1.6 | 9.7 | 0.00 | 0.00 | 0.00 | 28 | 1016.6 |
| 20260504182013 | 20 | 338 | 4.8 | 9.7 | 0.00 | 0.00 | 0.00 | 28 | 1016.5 |
| 20260504181536 | 20 | 216 | 3.2 | 8.0 | 0.00 | 0.00 | 0.00 | 29 | 1016.7 |
| 20260504181014 | 20 | 217 | 1.6 | 12.9 | 0.00 | 0.00 | 0.00 | 28 | 1016.6 |
| 20260504180512 | 19 | 13 | 3.2 | 11.3 | 0.00 | 0.00 | 0.00 | 27 | 1016.6 |
| 20260504180035 | 19 | 185 | 1.6 | 9.7 | 0.00 | 0.00 | 0.00 | 29 | 1016.6 |
| 20260504175511 | 20 | 218 | 4.8 | 9.7 | 0.00 | 0.00 | 0.00 | 28 | 1016.5 |
| 20260504175018 | 19 | 53 | 3.2 | 14.5 | 0.00 | 0.00 | 0.00 | 28 | 1016.5 |
| 20260504174536 | 19 | 334 | 6.4 | 14.5 | 0.00 | 0.00 | 0.00 | 29 | 1016.6 |
| 20260504174014 | 18 | 78 | 1.6 | 9.7 | 0.00 | 0.00 | 0.00 | 31 | 1016.7 |
| 20260504173511 | 18 | 328 | 3.2 | 9.7 | 0.00 | 0.00 | 0.00 | 29 | 1016.8 |
| 20260504173037 | 18 | 87 | 3.2 | 9.7 | 0.00 | 0.00 | 0.00 | 31 | 1016.8 |
| 20260504172511 | 18 | 32 | 1.6 | 14.5 | 0.00 | 0.00 | 0.00 | 30 | 1016.8 |
| 20260504172012 | 18 | 342 | 3.2 | 14.5 | 0.00 | 0.00 | 0.00 | 29 | 1016.9 |
| 20260504171542 | 18 | 318 | 3.2 | 12.9 | 0.00 | 0.00 | 0.00 | 31 | 1016.8 |
| 20260504171014 | 19 | 16 | 3.2 | 12.9 | 0.00 | 0.00 | 0.00 | 31 | 1016.9 |
| 20260504170513 | 19 | 240 | 1.6 | 8.0 | 0.00 | 0.00 | 0.00 | 29 | 1016.8 |
| 20260504151013 | 16 | 196 | 1.6 | 6.4 | 0.00 | 0.00 | 0.00 | 35 | 1016.7 |
| 20260504150514 | 16 | 211 | 1.6 | 6.4 | 0.00 | 0.00 | 0.00 | 34 | 1016.6 |
| 20260504141013 | 13 | 233 | 6.4 | 9.7 | 0.00 | 0.00 | 0.00 | 38 | 1016.5 |
| 20260504140517 | 13 | 236 | 4.8 | 11.3 | 0.00 | 0.00 | 0.00 | 39 | 1016.5 |
| 20260504130512 | 13 | 244 | 4.8 | 11.3 | 0.00 | 0.00 | 0.00 | 40 | 1016.3 |
| 20260504110515 | 13 | 241 | 3.2 | 9.7 | 0.00 | 0.00 | 0.00 | 38 | 1016.5 |
| 20260504100514 | 13 | 249 | 4.8 | 8.0 | 0.00 | 0.00 | 0.00 | 37 | 1016.5 |
| 20260504081556 | 13 | 259 | 4.8 | 9.7 | 0.00 | 0.00 | 0.00 | 37 | 1017.1 |
| 20260504081015 | 14 | 245 | 4.8 | 8.0 | 0.00 | 0.00 | 0.00 | 36 | 1017.1 |
| 20260504080528 | 14 | 250 | 4.8 | 6.4 | 0.00 | 0.00 | 0.00 | 36 | 1017.1 |
| 20260504070120 | 15 | 269 | 1.6 | 4.8 | 0.00 | 0.00 | 0.00 | 35 | 1017.0 |